• In Deutschland
  • Länderverzeichnis
  • Für 7 Tage
  • Wassertemperatur
  • Satellitenkarten
  • Wetterkarte
  • Widgets
  • user-avatar
    Anmelden

    Stündliche Wetter Fier

    Heute, 25 Mai, Donnerstag

    Zeit Temperatur Niederschläge Wind Luftdruck Luftfeuchtigkeit
    00:00 +15°C° 0 mm 1 m/S 759 mmHg 89%
    01:00 +15°C° 0 mm 1 m/S 759 mmHg 89%
    02:00 +15°C° 0 mm 1 m/S 759 mmHg 89%
    03:00 +15°C° 0 mm 1 m/S 759 mmHg 89%
    04:00 +15°C° 0 mm 1 m/S 758 mmHg 89%
    05:00 +18°C° 0 mm 1 m/S 758 mmHg 83%
    06:00 +19°C° 0 mm 1 m/S 758 mmHg 77%
    07:00 +21°C° 0 mm 1 m/S 758 mmHg 71%
    08:00 +21°C° 0,2 mm 2 m/S 758 mmHg 67%
    09:00 +23°C° 0,2 mm 2 m/S 758 mmHg 63%
    10:00 +24°C° 0,2 mm 3 m/S 759 mmHg 59%
    11:00 +24°C° 0,9 mm 3 m/S 758 mmHg 63%
    12:00 +24°C° 0,9 mm 3 m/S 758 mmHg 68%
    13:00 +22°C° 0,9 mm 3 m/S 758 mmHg 72%
    14:00 +22°C° 1,1 mm 3 m/S 758 mmHg 74%
    15:00 +21°C° 1,1 mm 4 m/S 758 mmHg 76%
    16:00 +20°C° 1,1 mm 4 m/S 758 mmHg 79%
    17:00 +19°C° 0,5 mm 4 m/S 758 mmHg 83%
    18:00 +18°C° 0,5 mm 3 m/S 758 mmHg 87%
    19:00 +17°C° 0,5 mm 3 m/S 758 mmHg 91%
    20:00 +16°C° 0,1 mm 3 m/S 758 mmHg 92%
    21:00 +16°C° 0,1 mm 3 m/S 758 mmHg 93%
    22:00 +14°C° 0,1 mm 4 m/S 758 mmHg 94%
    23:00 +14°C° 0,1 mm 3 m/S 758 mmHg 94%

    Morgen, 26 Mai, Freitag

    Zeit Temperatur Niederschläge Wind Luftdruck Luftfeuchtigkeit
    00:00 +14°C° 0,1 mm 3 m/S 758 mmHg 93%
    01:00 +13°C° 0,1 mm 3 m/S 758 mmHg 93%
    02:00 +14°C° 0,1 mm 2 m/S 758 mmHg 93%
    03:00 +14°C° 0,1 mm 2 m/S 758 mmHg 93%
    04:00 +13°C° 0,1 mm 1 m/S 757 mmHg 92%
    05:00 +15°C° 0 mm 2 m/S 757 mmHg 87%
    06:00 +16°C° 0 mm 2 m/S 758 mmHg 82%
    07:00 +18°C° 0 mm 2 m/S 758 mmHg 77%
    08:00 +19°C° 0 mm 2 m/S 758 mmHg 69%
    09:00 +20°C° 0 mm 2 m/S 758 mmHg 62%
    10:00 +22°C° 0 mm 3 m/S 758 mmHg 55%
    11:00 +22°C° 0,1 mm 3 m/S 758 mmHg 56%
    12:00 +22°C° 0,1 mm 4 m/S 758 mmHg 56%
    13:00 +22°C° 0,1 mm 5 m/S 758 mmHg 57%
    14:00 +22°C° 0,1 mm 5 m/S 757 mmHg 58%
    15:00 +22°C° 0,1 mm 5 m/S 757 mmHg 59%
    16:00 +22°C° 0,1 mm 6 m/S 757 mmHg 60%
    17:00 +20°C° 0,1 mm 5 m/S 757 mmHg 68%
    18:00 +19°C° 0,1 mm 5 m/S 758 mmHg 76%
    19:00 +17°C° 0,1 mm 4 m/S 758 mmHg 84%
    20:00 +15°C° 0 mm 4 m/S 758 mmHg 85%
    21:00 +16°C° 0 mm 3 m/S 758 mmHg 86%
    22:00 +14°C° 0 mm 3 m/S 759 mmHg 88%
    23:00 +14°C° 0 mm 3 m/S 759 mmHg 87%

    übermorgen, 27 Mai, Samstag

    Zeit Temperatur Niederschläge Wind Luftdruck Luftfeuchtigkeit
    00:00 +15°C° 0 mm 2 m/S 759 mmHg 86%
    01:00 +15°C° 0 mm 2 m/S 759 mmHg 85%
    02:00 +15°C° 0 mm 2 m/S 759 mmHg 84%
    03:00 +15°C° 0 mm 2 m/S 759 mmHg 83%
    04:00 +15°C° 0 mm 2 m/S 759 mmHg 82%
    05:00 +17°C° 0 mm 2 m/S 759 mmHg 76%
    06:00 +19°C° 0 mm 2 m/S 759 mmHg 70%
    07:00 +20°C° 0 mm 2 m/S 759 mmHg 65%
    08:00 +22°C° 0 mm 3 m/S 760 mmHg 59%
    09:00 +25°C° 0 mm 3 m/S 760 mmHg 53%
    10:00 +26°C° 0 mm 3 m/S 760 mmHg 47%
    11:00 +27°C° 0,2 mm 4 m/S 760 mmHg 48%
    12:00 +27°C° 0,2 mm 4 m/S 760 mmHg 49%
    13:00 +27°C° 0,2 mm 5 m/S 760 mmHg 49%
    14:00 +27°C° 0,2 mm 5 m/S 760 mmHg 52%
    15:00 +26°C° 0,2 mm 5 m/S 760 mmHg 54%
    16:00 +26°C° 0,2 mm 5 m/S 759 mmHg 57%
    17:00 +23°C° 0,1 mm 5 m/S 760 mmHg 65%
    18:00 +21°C° 0,1 mm 4 m/S 760 mmHg 73%
    19:00 +19°C° 0,1 mm 4 m/S 760 mmHg 81%
    20:00 +18°C° 0 mm 4 m/S 761 mmHg 82%
    21:00 +18°C° 0 mm 3 m/S 761 mmHg 83%
    22:00 +17°C° 0 mm 3 m/S 762 mmHg 84%
    23:00 +17°C° 0 mm 3 m/S 762 mmHg 83%

    28 Mai, Sonntag

    Zeit Temperatur Niederschläge Wind Luftdruck Luftfeuchtigkeit
    00:00 +17°C° 0 mm 3 m/S 762 mmHg 81%
    01:00 +17°C° 0 mm 3 m/S 762 mmHg 80%
    02:00 +17°C° 0 mm 3 m/S 762 mmHg 79%
    03:00 +16°C° 0 mm 3 m/S 762 mmHg 78%
    04:00 +16°C° 0 mm 3 m/S 762 mmHg 76%
    05:00 +18°C° 0 mm 3 m/S 762 mmHg 72%
    06:00 +20°C° 0 mm 3 m/S 762 mmHg 68%
    07:00 +21°C° 0 mm 3 m/S 763 mmHg 63%
    08:00 +24°C° 0 mm 3 m/S 763 mmHg 56%
    09:00 +26°C° 0 mm 3 m/S 763 mmHg 49%
    10:00 +28°C° 0 mm 3 m/S 763 mmHg 42%
    11:00 +28°C° 0 mm 3 m/S 763 mmHg 41%
    12:00 +29°C° 0 mm 3 m/S 763 mmHg 40%
    13:00 +30°C° 0 mm 4 m/S 763 mmHg 39%
    14:00 +29°C° 0,2 mm 4 m/S 763 mmHg 43%
    15:00 +28°C° 0,2 mm 4 m/S 763 mmHg 47%
    16:00 +27°C° 0,2 mm 4 m/S 763 mmHg 51%
    17:00 +25°C° 0,1 mm 4 m/S 763 mmHg 59%
    18:00 +22°C° 0,1 mm 3 m/S 763 mmHg 68%
    19:00 +20°C° 0,1 mm 3 m/S 764 mmHg 76%
    20:00 +19°C° 0 mm 2 m/S 764 mmHg 77%
    21:00 +19°C° 0 mm 2 m/S 764 mmHg 78%
    22:00 +18°C° 0 mm 2 m/S 764 mmHg 79%
    23:00 +18°C° 0 mm 2 m/S 764 mmHg 78%

    29 Mai, Montag

    Zeit Temperatur Niederschläge Wind Luftdruck Luftfeuchtigkeit
    00:00 +18°C° 0 mm 2 m/S 764 mmHg 78%
    01:00 +18°C° 0 mm 2 m/S 764 mmHg 78%
    02:00 +18°C° 0 mm 2 m/S 764 mmHg 77%
    03:00 +17°C° 0 mm 2 m/S 764 mmHg 76%
    04:00 +17°C° 0 mm 2 m/S 763 mmHg 75%
    05:00 +20°C° 0 mm 1 m/S 764 mmHg 70%
    06:00 +22°C° 0 mm 1 m/S 764 mmHg 66%
    07:00 +24°C° 0 mm 1 m/S 764 mmHg 61%
    08:00 +25°C° 0 mm 1 m/S 763 mmHg 55%
    09:00 +27°C° 0 mm 1 m/S 763 mmHg 49%
    10:00 +29°C° 0 mm 1 m/S 763 mmHg 43%
    11:00 +29°C° 0 mm 2 m/S 763 mmHg 42%
    12:00 +29°C° 0 mm 2 m/S 762 mmHg 41%
    13:00 +29°C° 0 mm 3 m/S 762 mmHg 40%
    14:00 +29°C° 0 mm 3 m/S 762 mmHg 43%
    15:00 +28°C° 0 mm 3 m/S 761 mmHg 46%
    16:00 +27°C° 0 mm 3 m/S 761 mmHg 49%
    17:00 +25°C° 0,1 mm 3 m/S 761 mmHg 58%
    18:00 +23°C° 0,1 mm 2 m/S 761 mmHg 67%
    19:00 +21°C° 0,1 mm 1 m/S 761 mmHg 76%
    20:00 +20°C° 0 mm 1 m/S 761 mmHg 77%
    21:00 +19°C° 0 mm 1 m/S 761 mmHg 78%
    22:00 +19°C° 0 mm 1 m/S 762 mmHg 80%
    23:00 +19°C° 0 mm 1 m/S 761 mmHg 78%

    30 Mai, Dienstag

    Zeit Temperatur Niederschläge Wind Luftdruck Luftfeuchtigkeit
    00:00 +19°C° 0 mm 1 m/S 761 mmHg 77%
    01:00 +18°C° 0 mm 1 m/S 761 mmHg 75%
    02:00 +18°C° 0 mm 1 m/S 761 mmHg 76%
    03:00 +18°C° 0 mm 1 m/S 760 mmHg 76%
    04:00 +18°C° 0 mm 1 m/S 760 mmHg 76%
    05:00 +20°C° 0 mm 1 m/S 760 mmHg 69%
    06:00 +22°C° 0 mm 1 m/S 760 mmHg 62%
    07:00 +22°C° 0 mm 0 m/S 761 mmHg 55%
    08:00 +26°C° 0 mm 1 m/S 761 mmHg 51%
    09:00 +27°C° 0 mm 1 m/S 761 mmHg 47%
    10:00 +28°C° 0 mm 1 m/S 761 mmHg 43%
    11:00 +29°C° 0 mm 2 m/S 760 mmHg 43%
    12:00 +29°C° 0 mm 3 m/S 760 mmHg 43%
    13:00 +29°C° 0 mm 3 m/S 760 mmHg 43%
    14:00 +29°C° 0,1 mm 3 m/S 760 mmHg 45%
    15:00 +28°C° 0,1 mm 3 m/S 760 mmHg 48%
    16:00 +27°C° 0,1 mm 3 m/S 760 mmHg 51%
    17:00 +25°C° 0 mm 2 m/S 760 mmHg 60%
    18:00 +23°C° 0 mm 1 m/S 760 mmHg 69%
    19:00 +21°C° 0 mm 1 m/S 760 mmHg 78%
    20:00 +20°C° 0 mm 1 m/S 760 mmHg 80%
    21:00 +19°C° 0 mm 1 m/S 761 mmHg 82%
    22:00 +19°C° 0 mm 1 m/S 761 mmHg 84%
    23:00 +18°C° 0 mm 1 m/S 761 mmHg 85%
    Mehr zeigen